Lapse_Rate
5.1 5.0 4.8 4.6 5.1 5.4 5.9 6.3 6.3 6.0 6.1 6.1 6.3 5.8 5.6 5.8 6.1 6.3 5.9 6.1 6.3 6.6 7.2 7.2 7.3 6.9 7.0 7.2 7.3 6.9 6.8 7.0 7.0 7.1 7.0 7.3 7.4 7.1 7.3 7.1 6.2 6.4 7.0 7.2
6.7 5.5 5.0 4.9 5.3 5.8 6.0 6.4 6.0 6.3 6.0 6.0 6.0 5.6 5.7 5.7 5.7 6.6 5.8 6.2 6.3 6.5 7.0 7.6 7.7 7.1 7.4 7.5 7.3 7.0 6.9 7.0 7.0 7.0 6.9 6.7 7.1 7.2 7.2 7.1 6.8 7.1 6.7 6.8
6.9 6.5 6.1 5.3 5.7 6.1 6.5 6.7 6.5 6.0 5.9 6.1 6.2 5.8 5.6 6.0 5.7 5.8 5.4 6.0 6.3 6.5 7.2 7.3 7.3 7.6 7.0 7.3 7.4 7.1 7.0 6.9 7.0 6.9 7.2 6.9 7.0 7.2 6.9 6.8 6.6 6.3 6.5 7.1
6.6 6.7 6.6 6.0 5.8 5.8 6.6 6.5 6.4 6.0 5.7 5.8 5.9 6.1 6.0 6.1 5.8 6.0 5.9 5.4 5.8 6.1 6.2 6.8 7.1 7.4 7.1 7.1 7.2 7.2 6.9 6.8 6.8 7.0 7.4 7.5 7.3 7.4 7.2 7.0 6.7 6.4 7.1 7.3
6.9 6.5 7.0 6.6 6.2 6.4 6.3 6.2 6.0 5.8 5.9 5.8 6.1 6.3 5.9 5.8 5.7 5.9 5.6 5.3 5.2 5.9 5.5 5.7 5.8 6.5 6.9 6.9 7.0 7.2 6.8 7.0 7.0 6.8 7.0 7.3 7.4 7.1 7.0 7.6 7.9 7.8 7.7 7.5
6.5 6.5 6.5 6.5 6.5 6.2 6.0 5.8 6.0 5.9 5.5 5.5 5.8 5.7 5.6 5.7 5.5 5.8 5.6 5.5 5.3 5.3 5.4 5.7 6.0 6.7 7.2 7.5 7.6 7.4 7.3 7.0 6.5 6.6 6.7 7.3 7.2 7.2 7.8 8.0 7.8 7.9 7.8 7.8
5.8 5.5 5.5 5.6 5.8 5.7 5.4 5.3 5.4 5.4 5.3 5.7 5.7 5.6 5.7 5.4 5.4 5.3 5.2 5.5 5.5 5.6 5.8 6.1 6.6 7.0 7.0 7.3 7.4 7.3 7.3 7.4 7.2 6.2 6.1 5.1 7.0 7.1 7.1 8.0 8.2 8.0 8.0 7.8
6.3 5.8 5.9 5.8 5.5 6.0 5.4 6.2 5.6 5.4 5.6 5.5 5.6 5.4 5.6 5.6 5.5 5.5 5.7 5.7 5.9 6.2 6.2 6.1 6.1 6.4 6.7 6.8 6.9 7.0 7.2 7.3 6.6 6.5 6.5 6.9 7.0 6.7 7.4 7.6 7.5 7.6 7.4 7.5
5.9 5.2 5.3 5.3 5.9 6.1 5.8 5.7 5.6 5.6 5.7 5.3 5.7 6.0 5.9 5.9 6.2 6.1 5.9 5.7 6.3 6.4 6.5 6.4 6.6 6.4 6.4 6.5 6.4 6.7 6.7 6.8 6.9 6.6 6.7 5.8 7.0 6.7 7.0 7.4 7.1 7.0 7.3 7.3
6.9 6.9 6.4 5.9 5.4 5.4 5.3 5.5 5.9 6.2 6.1 5.7 5.9 6.3 6.8 6.4 6.6 7.2 7.1 6.7 6.3 6.2 6.5 6.6 6.6 6.4 6.4 6.7 6.7 6.7 6.6 6.9 7.0 7.0 7.1 6.8 6.7 6.8 7.5 7.5 7.1 7.4 7.2 6.9
6.7 6.7 6.5 6.4 6.3 6.2 6.0 6.0 6.0 6.0 6.4 6.4 6.4 6.8 6.9 6.7 6.6 6.8 6.4 6.1 6.0 6.0 6.1 6.1 6.0 5.9 5.7 6.3 6.7 7.1 7.5 7.4 7.1 7.3 7.1 6.3 6.7 7.4 7.0 7.5 7.3 7.3 6.8 6.7
6.7 6.5 6.5 6.7 6.5 6.1 5.7 5.6 5.8 6.0 6.1 5.9 6.1 6.2 6.5 6.9 6.8 6.5 6.4 6.2 6.2 6.1 6.1 6.2 6.2 6.6 6.7 6.7 7.0 7.3 7.2 7.3 7.6 7.5 7.4 7.7 7.3 7.0 7.0 7.0 7.1 7.2 6.9 6.7
7.1 7.0 6.8 6.8 6.8 6.4 6.2 6.3 6.3 6.2 6.3 6.1 6.0 6.0 6.4 6.6 6.6 6.6 6.8 6.4 6.5 6.5 6.5 6.8 6.9 7.0 7.1 7.3 7.4 7.5 7.5 7.6 7.5 7.4 7.1 7.0 6.9 6.8 6.8 7.0 7.1 7.2 7.3 7.0
6.7 6.9 7.1 6.9 7.4 7.3 7.0 6.8 6.8 6.9 7.3 6.8 6.4 6.5 6.6 6.9 6.9 7.0 7.2 7.3 7.4 7.4 7.3 7.1 7.1 7.1 7.1 7.1 7.2 7.3 7.2 7.2 7.1 7.3 7.2 7.4 7.4 7.4 7.4 7.3 7.2 7.1 7.1 7.1
7.2 6.9 7.0 7.0 7.1 7.4 7.3 7.5 7.7 7.6 7.7 7.7 7.8 7.7 7.3 7.4 7.4 7.1 7.0 7.0 7.0 7.1 7.2 7.1 7.2 7.3 7.2 7.1 6.9 6.4 7.0 6.9 7.0 6.8 7.2 7.1 7.0 7.3 7.4 7.3 7.2 7.2 7.1 7.0
7.4 7.4 7.4 7.2 7.3 7.3 7.2 7.4 7.6 7.6 7.6 7.6 7.6 7.7 7.5 7.5 7.5 7.4 7.1 7.1 7.0 6.8 6.8 6.7 6.6 6.9 7.3 6.6 6.4 7.2 7.4 7.5 7.2 6.7 6.8 6.6 6.4 6.3 6.5 6.7 7.0 7.2 7.3 7.2
7.6 7.6 7.7 7.6 7.5 7.4 7.4 7.4 7.2 7.1 7.2 7.5 7.5 7.4 7.3 7.2 7.2 7.2 7.2 7.2 7.1 7.0 6.9 6.9 7.0 7.1 6.7 6.2 6.0 8.6 7.4 6.9 6.6 6.3 6.2 6.3 6.6 6.6 6.8 6.7 6.9 7.4 7.2 7.1
7.7 7.8 7.7 7.7 7.6 7.6 7.4 7.2 7.2 7.4 7.4 7.4 7.2 7.0 7.1 7.2 7.5 7.4 7.4 7.3 7.1 7.2 7.1 7.3 7.2 6.9 6.7 6.0 7.7 7.1 7.1 7.1 7.0 7.1 7.1 7.0 6.7 6.8 7.1 7.2 7.1 6.9 6.6 6.7
7.8 7.9 7.9 7.9 7.7 7.5 7.5 7.4 7.4 7.4 7.4 7.3 7.2 7.1 7.2 7.2 7.3 7.2 7.2 7.3 7.2 7.2 7.4 7.4 7.0 7.1 6.9 7.6 7.2 7.1 7.1 6.9 7.0 7.1 7.1 6.8 6.6 6.5 6.6 6.9 7.1 6.8 6.9 6.9
7.8 7.9 8.0 7.9 7.8 7.6 7.6 7.7 7.6 7.6 7.5 7.4 7.3 7.3 7.2 7.2 7.3 7.4 7.2 7.3 7.3 7.2 7.3 7.1 7.2 7.5 7.5 7.4 7.2 7.2 7.0 6.9 6.9 6.6 6.8 7.0 6.9 6.9 6.7 6.7 7.0 7.3 7.2 6.7
7.9 8.0 8.0 8.0 7.9 7.8 7.7 7.5 7.5 7.5 7.5 7.5 7.6 7.5 7.5 7.7 7.7 7.7 7.5 7.5 7.3 7.2 7.4 7.2 7.1 7.8 7.9 7.6 7.6 7.3 7.2 7.1 7.0 7.2 7.3 7.3 7.3 7.3 7.1 7.3 7.1 7.1 6.8 6.8
7.9 8.0 7.9 7.9 7.8 7.8 7.7 7.5 7.7 7.8 7.8 7.8 7.7 7.8 7.8 7.7 7.7 7.6 7.6 7.5 7.4 7.3 7.3 7.2 7.3 7.8 7.7 7.7 7.6 7.6 7.8 7.5 7.6 7.5 7.3 7.4 7.4 7.2 7.3 7.1 6.8 6.8 6.9 7.2
8.1 7.9 7.9 7.9 7.8 7.6 7.7 7.8 7.9 7.8 7.8 7.9 7.9 7.7 7.7 7.8 7.7 7.6 7.6 7.4 7.3 7.4 7.2 7.2 7.4 7.1 7.6 7.5 7.5 7.7 7.6 7.6 7.6 7.4 7.2 7.2 7.2 7.2 7.3 7.1 7.1 6.8 6.8 6.9
7.7 7.8 7.9 8.0 7.9 7.9 7.9 7.8 7.8 7.8 7.9 8.0 7.8 7.8 7.9 7.7 7.6 7.5 7.4 7.4 7.2 7.3 7.1 7.4 7.4 7.8 7.7 7.7 7.5 7.5 7.5 7.4 7.4 7.3 7.2 7.2 7.2 7.2 6.8 6.4 6.6 6.5 6.6 6.8
7.9 8.0 8.1 8.0 8.0 8.0 7.9 7.8 7.8 7.9 7.8 7.8 7.8 7.7 7.7 7.8 7.6 7.6 7.6 7.5 7.5 7.5 7.5 7.6 7.4 7.7 7.8 7.8 7.7 7.6 7.5 7.4 7.3 7.2 7.1 7.1 7.0 6.7 6.6 6.6 6.7 6.9 7.0 7.0
8.1 8.2 8.2 8.2 8.3 8.1 8.0 7.9 7.8 7.7 7.7 7.7 7.7 7.6 7.7 7.6 7.7 7.7 7.8 7.6 7.7 7.8 7.7 7.6 7.8 7.8 7.7 7.8 7.8 7.7 7.6 7.5 7.4 7.5 7.4 7.4 7.3 7.2 7.2 7.1 7.2 7.3 7.2 7.3
8.2 8.3 8.3 8.2 8.3 8.1 7.9 7.9 8.0 7.8 7.7 7.5 7.5 7.5 7.7 7.6 7.7 7.8 7.6 7.6 7.6 7.7 7.6 7.5 7.5 7.6 7.7 7.8 7.8 7.8 7.8 7.8 7.9 7.9 7.9 7.9 7.8 7.5 7.5 7.4 7.3 7.2 7.3 7.3
Wind_Speed
24 23 24 25 25 30 26 5 8 2 2 12 2 11 11 8 15 3 5 2 14 6 12 17 14 12 10 7 10 11 5 5 5 4 2 3 2 4 6 4 5 4 4 4
22 23 27 25 27 36 8 7 3 0 4 14 4 4 6 6 11 12 11 10 2 13 7 6 13 6 3 4 5 9 6 2 2 3 3 4 4 3 4 5 3 4 4 5
20 22 23 27 32 29 6 4 5 2 1 1 10 8 9 6 5 5 2 6 5 4 3 1 7 4 2 2 4 8 6 3 4 9 4 3 4 1 3 4 3 2 4 7
26 25 27 25 20 15 4 1 4 3 6 3 8 8 7 10 5 4 3 3 4 3 5 2 4 4 5 5 5 4 5 4 3 4 4 3 1 3 5 2 3 5 6 9
24 24 22 20 19 14 3 4 3 2 5 9 14 5 4 6 8 7 6 1 7 11 4 3 5 7 3 4 2 3 2 3 3 2 3 3 4 5 4 7 7 7 7 14
22 20 23 17 12 6 3 1 1 3 4 6 5 5 6 9 10 2 9 6 12 13 4 3 3 5 5 6 6 3 5 5 3 2 1 4 6 5 8 4 4 5 5 11
22 19 14 11 11 9 4 3 2 3 4 5 4 12 11 14 8 5 3 6 7 5 2 3 8 11 10 9 5 5 7 6 3 3 3 2 5 0 3 4 7 2 6 6
19 17 15 14 17 16 4 1 3 3 4 7 12 14 10 13 11 4 6 6 4 6 5 4 4 4 5 4 0 3 4 5 3 5 4 4 8 6 5 3 4 2 3 1
19 18 19 17 14 13 4 3 1 4 7 0 10 10 14 7 5 3 1 5 5 5 3 3 4 5 5 5 3 5 4 4 4 3 4 8 4 3 6 4 8 3 2 2
20 20 21 21 18 14 5 3 5 4 4 4 4 4 6 6 4 3 3 5 4 5 3 2 2 3 4 6 7 5 4 1 6 3 4 6 7 4 4 4 7 5 5 5
19 20 21 20 17 14 5 1 4 4 4 5 6 4 4 4 4 4 6 4 4 3 3 3 4 3 4 3 4 6 7 7 4 3 3 9 6 3 9 7 4 6 5 4
18 19 21 21 18 14 7 4 4 3 5 3 2 6 2 4 4 7 3 4 4 4 3 1 2 1 2 5 3 2 3 6 5 8 7 5 4 5 1 5 6 4 3 3
18 20 21 23 22 17 8 3 4 4 3 3 4 5 4 8 7 2 4 1 4 3 3 3 2 2 2 2 4 2 2 2 3 2 3 5 5 1 4 5 5 3 3 3
16 17 18 21 20 20 13 4 3 4 3 4 2 2 4 3 8 8 6 6 5 5 3 3 2 2 2 2 2 2 4 2 1 4 4 5 5 6 4 3 4 5 2 4
15 16 16 16 16 14 10 4 4 2 4 3 1 4 4 6 7 9 9 7 5 3 3 3 2 0 2 2 2 5 5 5 4 9 6 4 5 3 2 3 4 6 7 7
12 14 15 15 14 7 4 3 3 5 2 4 2 3 1 3 8 8 7 5 3 3 3 2 2 3 3 3 5 12 10 8 7 11 6 8 11 10 12 12 9 8 7 7
11 13 16 17 18 6 4 2 2 6 3 3 2 2 3 5 5 3 3 4 1 3 2 1 3 2 4 2 11 24 11 8 10 12 6 7 7 7 6 6 7 8 7 8
13 14 14 14 13 7 5 5 12 7 4 3 3 2 4 4 2 2 1 3 3 3 2 1 2 1 2 4 14 9 9 15 15 15 14 16 14 11 10 5 4 5 7 6
18 16 10 5 5 3 2 6 14 7 4 2 2 3 3 2 2 2 3 2 1 1 3 3 3 2 5 12 11 10 10 8 12 12 13 14 12 12 5 4 4 7 7 8
15 5 3 3 2 10 2 5 4 4 3 2 1 1 1 3 2 1 3 1 3 1 4 2 2 4 14 12 13 12 9 9 9 5 7 7 6 3 10 14 12 13 10 2
2 2 2 2 5 3 2 2 1 1 1 2 3 4 3 2 3 2 2 2 2 2 3 3 3 3 3 5 6 5 6 8 12 11 8 6 6 7 13 10 8 7 5 8
4 5 4 2 1 1 1 2 1 2 3 3 3 4 4 1 2 3 3 2 2 4 3 2 3 3 5 7 6 8 10 12 3 3 7 8 11 9 8 5 4 4 6 10
3 3 3 2 1 2 3 2 2 1 3 3 2 2 3 2 2 1 2 3 3 2 1 3 2 1 2 4 5 7 10 11 11 9 6 4 2 4 4 8 8 9 8 7
3 2 4 3 2 3 3 3 3 3 2 3 3 2 3 2 2 2 2 3 2 2 2 2 0 1 2 5 6 7 8 8 8 7 6 6 6 8 7 7 8 10 10 6
2 2 3 3 2 0 2 2 2 2 2 3 2 3 2 1 1 1 1 3 3 3 3 0 2 1 2 3 4 5 6 6 6 4 4 5 6 6 8 6 6 7 8 8
1 1 2 2 3 3 1 1 1 0 2 2 2 2 2 3 3 3 5 2 4 3 2 2 2 2 2 3 3 4 5 5 5 4 3 4 5 5 5 7 6 6 7 7
2 2 1 2 0 2 2 1 2 1 3 2 2 2 6 1 2 3 4 4 2 2 1 2 2 1 3 4 4 2 3 4 4 2 3 3 4 5 6 7 5 6 6 5
Wind_Direction
204 199 190 190 180 168 169 177 178 164 247 181 145 209 155 220 205 216 170 212 255 222 185 196 193 194 171 175 153 159 175 142 194 196 354 141 121 157 145 153 210 193 183 259
192 190 189 180 171 169 149 149 117 341 243 202 169 146 177 214 170 165 173 193 177 244 222 196 203 129 13 97 115 152 172 181 104 10 340 358 95 67 103 109 85 188 154 250
188 189 179 176 172 172 112 145 132 317 83 163 153 159 162 148 18 144 310 180 124 283 224 312 139 120 119 73 96 89 89 95 189 215 158 140 158 168 87 117 107 187 232 298
106 111 117 115 114 136 93 163 151 216 169 156 154 129 145 150 145 59 338 318 119 136 193 65 88 89 121 39 108 73 97 126 86 82 101 85 141 253 99 100 157 176 240 227
74 97 95 95 96 94 83 119 127 98 91 128 120 119 147 140 124 150 158 82 88 79 76 258 173 131 138 157 117 99 68 112 107 111 177 158 262 240 166 213 245 250 267 272
85 82 79 79 96 75 78 21 136 138 128 136 116 140 140 161 140 47 177 129 101 90 104 88 14 63 93 130 131 119 118 130 105 273 208 55 311 266 207 170 209 199 240 260
89 83 82 90 126 150 126 192 128 113 108 98 108 118 112 124 114 128 64 80 104 177 254 25 39 42 43 78 78 119 136 121 100 130 101 226 234 61 229 214 260 323 280 306
77 72 56 62 71 77 84 48 100 95 88 115 120 139 125 103 92 87 110 33 107 130 80 70 68 6 30 342 152 130 121 120 127 156 198 312 278 189 200 132 285 215 159 300
70 67 62 59 56 56 78 45 144 97 121 159 152 142 147 132 134 108 71 73 66 76 84 69 141 173 150 182 201 197 125 61 114 160 167 204 242 127 99 102 272 143 149 10
67 64 59 58 57 60 86 34 18 77 101 16 115 111 154 120 105 110 128 144 90 72 96 108 123 214 179 164 173 163 130 106 178 147 206 275 225 187 63 169 244 188 170 167
62 61 57 54 48 44 60 9 5 100 81 13 39 100 116 117 117 134 177 77 12 64 114 156 186 184 216 166 210 173 166 168 191 98 169 261 192 212 170 203 202 183 193 179
67 58 55 47 43 54 62 39 359 49 76 123 19 94 48 89 149 126 32 131 139 164 107 140 108 179 151 169 212 173 198 181 182 183 209 212 207 180 165 176 200 194 173 223
62 58 48 52 61 55 69 76 352 54 77 20 51 50 6 51 57 85 117 66 139 147 151 154 164 148 103 169 233 184 231 157 190 99 252 211 224 232 184 201 182 154 206 224
81 69 56 51 57 58 59 64 331 73 89 97 337 14 67 90 70 67 74 114 58 88 76 98 115 143 150 206 226 190 208 55 189 267 266 277 252 208 194 172 159 168 201 245
98 92 82 74 68 74 72 59 17 51 120 147 178 319 28 111 96 85 78 85 77 63 58 74 206 293 66 296 54 235 183 185 194 251 201 215 237 244 195 226 252 238 219 234
98 89 75 57 42 73 79 61 344 352 92 86 77 290 252 92 103 103 101 104 92 93 131 189 230 237 132 195 239 250 227 217 203 251 196 235 257 252 256 260 256 256 253 231
94 81 70 53 49 52 72 113 238 9 60 76 40 353 308 128 87 36 64 47 112 109 127 135 179 225 161 224 259 263 253 233 239 240 238 262 249 249 223 222 240 232 214 203
96 85 78 62 48 64 35 8 18 43 80 66 79 316 32 30 34 56 18 62 30 1 181 47 177 222 178 253 252 280 248 244 244 240 238 252 261 263 262 222 220 233 241 187
102 86 53 44 34 42 62 80 51 45 94 95 70 124 219 354 84 93 23 107 64 224 213 226 124 211 228 240 249 242 236 217 238 238 240 248 244 244 223 232 261 241 222 199
98 49 41 28 4 118 83 16 25 21 17 43 169 31 175 106 100 106 97 343 214 221 230 116 205 249 246 259 254 251 240 221 226 223 254 236 190 266 313 306 305 267 241 215
59 93 70 25 133 43 47 80 40 41 324 185 222 192 132 255 121 150 197 165 197 241 253 156 233 261 242 314 312 342 305 261 232 212 222 185 209 215 264 261 247 242 213 190
154 116 101 103 151 99 297 175 172 188 235 181 172 193 180 179 116 106 175 205 150 249 143 211 248 270 20 14 10 11 7 360 45 190 219 203 237 236 238 220 179 126 106 123
67 70 84 116 104 195 150 214 258 252 187 191 166 87 110 59 108 158 163 208 236 93 159 225 235 31 5 8 8 28 22 31 42 49 51 37 45 58 93 110 112 107 94 98
82 133 134 170 200 245 198 193 195 240 127 106 107 89 136 175 104 170 156 244 120 291 246 242 82 343 44 45 40 47 28 26 39 34 33 34 51 71 77 91 109 114 116 108
107 133 195 206 227 286 231 254 54 339 111 79 48 33 91 80 115 195 133 10 259 224 230 297 255 236 112 75 35 43 44 36 37 25 39 49 55 75 84 88 99 110 115 116
281 227 14 301 54 339 353 351 292 80 98 50 61 125 94 199 184 165 210 214 219 236 178 196 168 167 132 121 75 47 45 43 42 52 54 64 69 80 85 89 100 110 119 123
279 284 178 149 255 209 228 258 239 175 86 160 138 171 217 141 205 215 181 207 221 217 223 192 158 207 157 129 106 70 57 59 61 40 64 76 93 93 97 101 99 100 95 115